Погода Демьянское

Погода Демьянское : погода сейчас, прогноз погоды и архив. Всё, что Вы хотите узнать о погоде Демьянское!

Поиск расширенной информации на нашем сайте:

Другие новости

Новости СМИ2

Главная страница сайта

Новости сайта

03.07.2017

Напоминаем, что на нашем специализированном сайте Метеоцентр.Азия вы можете получить высокодетализированные автоматические прогнозы погоды по пунктам России, СНГ и мира в авиационном формате (включающие направление и скорость ветра, видимость, явления погоды, количество и форму облачности, нижнюю и верхнюю границу облачности).


Погода Демьянское - сегодня

Время (UTC), дата Ветер
(°,м/с) 
Видим.   Явления Облачность Т
(°С)
Тd
(°С)
f(%) Тe
(°С)
Pmin
(гПа)
dP
(гПа)
Po
(мм)
O2
(г/м3)
Тmin Tmax R s Состояние
почвы
09 09.12.17 110 (В) 10 км    10/0 средняя, верхняя 
[Ac lent|Ci]
-7.4 -10.5 78 -11  1015.3  -1.8  756  314           
12 09.12.17 090 (В) 10 км    6/0 средняя 
[Ac lent]
-9.2 -10.9 87 -13  1013.1  -2.3  754  316           
15 09.12.17 110 (В) 10 км    9/0 верхняя 
[Cs]
-9.8 -11.6 87 -13  1012.3  -0.7  754  316    -7.2       
18 09.12.17 120 (ЮВ) 10 км    9/0 верхняя 
[Cs]
-10.9 -13 84 -13  1012.1  -0.3  753  317           
21 09.12.17 110 (В) 10 км    10/0 средняя, верхняя 
[Ac trans|Cs]
-12.7 -14.4 87 -15  1011.8  -0.3  753  320           
00 10.12.17 130 (ЮВ) 10 км    10/0 средняя 
[Ac und]
-12.4 -14.2 86 -12  1012  0.2  753  319           
03 10.12.17 090 (В) 4000 м  слаб. снег  10/0 средняя 
[As op]
-11.8 -13.2 89 -14  1013.5  1.4  754  319  -12.9    0.7  20  равномерный
сухой снег
100% 
06 10.12.17 140 (ЮВ) 4000 м  слаб. снег  10/0 средняя 
[As op]
-10.6 -12 89 -10  1014.9  1.5  756  318           
09 10.12.17 тихо ()   2000 м  снег  10/10 600 м 
[Ns]
-9.3 -10.6 90 -9  1015.7  0.9  756  317           
12 10.12.17 тихо ()   10 км  {снег}  10/0 верхняя 
[Ci]
-12.5 -13.5 92 -13  1017.7  1.9  758  321           
15 10.12.17 тихо ()   10 км    8/0 верхняя 
[Ci fib]
-13.9 -15.1 91 -14  1019.1  1.4  759  323    -9.3     
18 10.12.17 тихо ()   10 км  [диам. изморози 2 мм]  4/0 верхняя 
[Ci fib]
-17.1 -18.7 87 -17  1019.6  0.4  759  328           
21 10.12.17 тихо ()   10 км  [диам. изморози 2 мм]  4/0 верхняя 
[Ci fib]
-18.7 -20.5 86 -19  1021.5  1.8  760  330           
00 11.12.17 360 (С) 10 км  [диам. изморози 2 мм]  3/0 верхняя 
[Ci fib]
-20.3 -22.3 84 -21  1023.2  1.6  761  333           
03 11.12.17 030 (СВ) 10 км  [диам. изморози 2 мм]  8/0 средняя, верхняя 
[Ac trans|Cs]
-14.1 -15.4 90 -14  1024.1  1.1  762  325  -20.4      23  равномерный
сухой снег
100% 
06 11.12.17 020 (С) 10 км  в посл. час снег [диам. изморози 2 мм]  10/0 средняя, верхняя 
[Ac trans|Cs]
-13 -14.3 90 -13  1026.3  2.2  764  325           
09 11.12.17 360 (С) 10 км  [диам. изморози 2 мм]  3/0 средняя 
[Ac trans]
-12.7 -14 90 -15  1027.4  1.2  765  325           
12 11.12.17 360 (С) 10 км  [диам. изморози 2 мм]  ясно 
-14.2 -15.5 90 -14  1029.2  1.7  766  327           
15 11.12.17 020 (С) 4000 м  слаб. снег [диам. изморози 2 мм]  10/0 средняя 
[As op]
-13.3 -14.7 89 -13  1030.9  1.7  767  326    -12.7  0.3     
18 11.12.17 010 (С) 10 км  {снег} [диам. изморози 2 мм]  4/0 средняя, верхняя 
[Ac trans|Ci fib]
-16.2 -17.7 88 -16  1032.3  1.3  768  331           
21 11.12.17 тихо ()   10 км  [диам. изморози 2 мм]  3/0 верхняя 
[Ci fib]
-18.2 -20 86 -18  1033.1  0.7  769  334           
00 12.12.17 тихо ()   10 км  [диам. изморози 2 мм]  5/0 средняя, верхняя 
[Ac trans|Ci fib]
-17.2 -18.8 87 -17  1033.7  0.7  769  332           
03 12.12.17 тихо ()   10 км  [диам. изморози 4 мм]  1/0 средняя 
[Ac trans]
-19.2 -21.1 85 -19  1035  1.2  770  336  -19.7    0.0  23  равномерный
сухой снег
100% 
06 12.12.17 тихо ()   10 км  [диам. изморози 4 мм]  9/0 верхняя 
[Ci]
-18.8 -20.7 85 -19  1035.7  0.7  771  335           
09 12.12.17 тихо ()   10 км  [диам. изморози 4 мм]  10/1 1000 м верхняя 
[Sc|Ci sp]
-16.3 -17.9 87 -16  1035.8  0.2  771  332           
Время (UTC), дата Ветер
(°,м/с) 
Видим.   Явления Облачность Т
(°С)
Тd
(°С)
f(%) Тe
(°С)
Pmin
(гПа)
dP
(гПа)
Po
(мм)
O2
(г/м3)
Тmin Tmax R s Состояние
почвы

Для получения пояснительной информации подведите курсор к названию столбца.

ПОГОДА Демьянское - архив

Всё, что Вы хотите узнать о погоде Демьянское - удобно и подробно!

Выберите нужную дату (начиная с 1 января 2015* года) и нажмите кнопку "Найти".
Будут отображены архивные сводки погоды по пункту Демьянское, начиная с указанной даты.


Отображать данные в формате CSV (для использования в таблицах Excel)


Внимание! Наш архив погоды предназначен исключительно для личного некоммерческого использования в познавательных целях. Если Вам необходимы официальные справки о состоянии погоды (для производственных, юридических, коммерческих и т.п. целей), обращайтесь в органы Росгидромета.

*Примечание: данная дата относится к архиву по метеостанциям СССР (Россия, СНГ, Балтия).
Архив по метеостанциям Зарубежной Европы и Азии (кроме Китая) хранится 10 дней, по другим регионам земного шара (Китай, Африка, Америка, Австралия, Океания) - 1 день.

Демьянское - район местоположения метеостанции


Название, широта, долгота, высота метеостанции:
Демьянское 59.6°ш. 69.3°д. 57 м над ур. моря [Российская Федерация]

Дополнительная информация

В oтличие oт бoльшинства пoгoдных сайтoв мы публикуем пoдрoбную метеoинфoрмацию в детальнoм прoфессиoнальнoм фoрмате.

Характеристики температуры и влажнoсти вoздуха измеряются на высoте 2 м в тени вдали oт зданий и деревьев.
Скoрoсть ветра измеряется на высoте 10 м (на урoвне рoста челoвека скoрoсть ветра ниже в 1.5-2 раза). Если метеoстанция нахoдится в гoрoде или в лесу, тo скoрoсть ветра занижена на 2-4 м/с пo сравнению с oткрытым местoм. Скoрoсть ветра над акватoриями крупных рек и oзёр, а также на вершинах хoлмoв на 2-5 м/с выше, чем в oбычных услoвиях.
Атмoсфернoе давление в разных тoчках местнoсти мoжет значительнo oтличаться oт давления на метеoстанции, в зависимoсти oт услoвий рельефа (при пoдъёме на 10 м давление пoнижается примернo на 1 мм рт.ст.).